Lid_Strength_Index
5 7 8 7 6 7 7 8 10 8 7 8 8 8 7 6 5 5 5 4 4 4 2 2 1 1 0 0 0 -0 -0 -1 -0 0 0 0 1 -0 -1 -1 -2 -1 -2 -2
7 8 6 5 6 6 7 8 9 8 7 8 9 9 7 6 6 5 5 4 4 3 3 2 2 1 1 1 0 0 -0 -1 -0 -0 -0 -0 -1 -1 -1 -1 -2 -1 -1 -2
8 7 5 6 6 7 7 8 9 9 8 7 8 10 9 7 5 5 4 4 3 3 3 3 2 1 1 1 1 0 -0 -0 -0 -1 -0 -0 -1 -0 0 -0 -0 -1 -1 -1
6 5 6 6 7 6 8 7 8 9 10 12 8 13 10 8 7 6 5 4 4 3 3 2 2 2 1 1 0 -0 -0 -0 -0 -1 -0 -0 1 1 0 -0 -1 -1 -1 -1
7 7 6 7 6 6 8 6 7 8 9 10 10 11 10 8 9 7 6 5 4 3 3 3 2 2 1 1 0 0 -0 -0 -1 -1 -1 0 0 0 -0 -0 -0 -1 -1 -1
6 5 6 6 5 5 6 7 8 8 9 12 10 11 11 10 8 7 5 5 4 3 3 2 2 1 1 0 0 0 0 0 -0 -0 -0 -0 -0 0 1 0 0 -0 -0 -0
7 7 5 5 6 6 7 8 10 11 10 12 9 10 10 8 7 6 6 5 4 3 3 3 2 2 1 1 1 1 0 1 0 0 -0 -0 -0 -0 0 0 0 -0 0 -0
9 10 6 5 6 7 7 7 10 13 11 10 10 11 10 6 5 5 5 4 4 3 3 3 2 2 1 1 1 1 1 1 0 0 -0 -0 -1 0 0 -0 -0 0 -0 -0
8 9 7 6 5 5 7 8 6 9 8 10 9 9 7 6 6 6 5 5 5 4 3 3 2 2 1 1 1 1 1 1 0 0 -0 -0 -0 -0 -0 -1 -1 -0 -1 -1
7 9 7 7 6 6 6 5 8 8 12 12 10 11 11 9 8 7 6 5 5 4 3 3 2 2 1 1 1 0 0 0 0 -0 0 0 -0 -0 -0 -1 -0 -1 -1 -1
6 7 7 6 7 7 7 7 7 7 8 10 11 12 7 8 7 7 6 5 4 4 3 3 2 2 1 1 1 1 1 0 0 0 -0 -0 -0 -0 -0 -0 -0 -1 -1 -1
5 6 7 7 5 5 5 7 7 9 10 8 9 12 6 6 6 6 6 5 4 4 4 3 2 2 2 1 1 1 0 1 0 -0 -0 0 -0 -0 0 -0 -0 -1 -1 -1
5 7 9 8 7 6 7 6 6 6 7 9 10 12 6 6 6 6 6 5 5 4 4 3 3 3 2 2 1 1 1 1 0 -0 0 0 0 0 0 -0 -0 -1 -1 -1
4 6 8 9 9 7 8 7 7 6 9 8 8 11 8 7 7 6 6 5 5 4 4 4 3 3 2 2 1 1 1 0 0 0 0 1 0 0 0 -0 -0 -0 -1 -0
5 8 7 7 7 7 7 8 7 8 7 8 8 9 8 7 6 5 5 5 4 4 4 4 3 3 2 2 2 1 1 0 0 1 1 0 -0 -0 -0 -0 -0 -0 -0 -0
5 8 7 8 7 7 8 8 8 7 8 8 7 8 6 5 5 5 5 5 5 4 4 3 3 3 3 2 2 1 1 1 0 0 1 0 0 0 0 -0 -0 -0 0 -0
6 6 8 9 7 7 9 8 8 7 7 7 8 7 6 6 5 5 5 4 4 4 4 3 3 3 2 2 1 1 1 1 1 1 1 1 1 1 0 0 0 1 0 0
6 7 6 8 8 12 8 6 6 7 7 6 6 6 5 5 4 4 3 4 4 4 3 3 2 2 1 1 1 1 1 1 1 1 1 1 1 1 1 0 1 0 0 0
5 6 8 9 9 8 7 7 7 8 8 6 6 6 5 5 4 5 3 3 3 3 2 2 2 2 1 1 1 1 1 1 1 1 1 0 0 0 0 1 1 1 0 0
5 5 8 8 10 12 8 6 5 6 10 5 5 6 6 5 7 6 3 3 3 2 2 2 1 1 1 1 0 1 1 1 1 1 1 -0 -0 -0 0 0 0 -0 0 0
8 7 9 9 9 8 6 5 5 10 9 5 5 5 5 6 5 4 3 2 2 2 2 1 1 1 1 0 0 1 1 2 1 0 -0 0 -0 -0 -0 -0 -0 0 0 0
8 9 9 8 10 11 5 5 8 6 5 4 4 4 4 4 4 3 3 3 2 2 2 2 1 1 1 0 0 1 2 0 -0 -0 0 0 -0 -0 -0 0 0 0 0 1
9 7 7 7 8 6 4 5 4 4 5 4 4 4 4 4 4 3 3 3 2 2 2 1 1 1 1 0 0 1 1 -0 -0 0 1 0 -0 -0 -1 0 0 1 0 1
7 6 7 8 6 6 5 4 4 3 4 3 3 3 3 4 3 3 3 2 2 2 2 1 1 2 2 0 0 0 0 -0 0 1 1 0 0 1 0 0 0 1 1 1
6 6 7 7 6 5 5 4 3 3 3 3 3 3 3 3 3 3 2 2 2 2 2 1 2 1 2 1 0 0 -0 -0 0 0 -0 -0 -0 0 0 0 1 1 0 2
5 6 7 7 5 5 4 3 3 3 3 3 3 3 2 2 3 2 2 2 2 2 1 1 1 1 1 1 1 0 -0 -0 1 1 0 1 0 -0 0 1 1 8 8 9